�������l�o���
Date,Time,MP-1(��Sv/h),MP-2(��Sv/h),MP-3(��Sv/h),MP-4(��Sv/h),MP-5(��Sv/h),MP-6(��Sv/h),MP-7(��Sv/h),MP-8(��Sv/h),����,����(m/s),���J
2023/10/08,00:00,0.528,0.805,0.494,1.011,0.723,0.321,0.574,0.532,���k��,3.5,��
2023/10/08,00:10,0.528,0.806,0.493,1.012,0.722,0.320,0.573,0.533,�k��,4.0,��
2023/10/08,00:20,0.528,0.806,0.494,1.011,0.723,0.321,0.574,0.532,�k��,5.0,��
2023/10/08,00:30,0.529,0.806,0.492,1.011,0.723,0.321,0.574,0.531,���k��,4.7,��
2023/10/08,00:40,0.529,0.805,0.493,1.012,0.722,0.319,0.574,0.533,���k��,4.6,��
2023/10/08,00:50,0.529,0.804,0.493,1.009,0.724,0.320,0.574,0.532,���k��,5.1,��
2023/10/08,01:00,0.530,0.805,0.492,1.009,0.722,0.320,0.575,0.531,���k��,5.6,��
2023/10/08,01:10,0.529,0.807,0.492,1.012,0.722,0.320,0.572,0.533,���k��,6.3,��
2023/10/08,01:20,0.530,0.806,0.492,1.011,0.722,0.319,0.572,0.533,���k��,6.4,��
2023/10/08,01:30,0.527,0.804,0.491,1.009,0.722,0.319,0.572,0.533,���k��,5.6,��
2023/10/08,01:40,0.528,0.807,0.494,1.011,0.722,0.320,0.574,0.532,���k��,6.1,��
2023/10/08,01:50,0.528,0.805,0.491,1.010,0.723,0.321,0.574,0.534,���k��,5.8,��
2023/10/08,02:00,0.530,0.805,0.494,1.008,0.724,0.319,0.574,0.532,�k��,7.0,��
2023/10/08,02:10,0.529,0.807,0.494,1.010,0.724,0.319,0.573,0.533,�k��,8.0,��
2023/10/08,02:20,0.528,0.806,0.494,1.012,0.724,0.319,0.573,0.533,�k��,7.0,��
2023/10/08,02:30,0.529,0.805,0.494,1.011,0.721,0.320,0.573,0.532,���k��,7.1,��
2023/10/08,02:40,0.529,0.805,0.494,1.012,0.723,0.319,0.573,0.533,���k��,5.7,��
2023/10/08,02:50,0.529,0.806,0.493,1.013,0.722,0.319,0.574,0.533,���k��,5.6,��
2023/10/08,03:00,0.527,0.805,0.494,1.012,0.724,0.320,0.575,0.532,�k��,6.0,��
2023/10/08,03:10,0.528,0.805,0.493,1.010,0.722,0.319,0.573,0.530,�k��,6.4,��
2023/10/08,03:20,0.528,0.806,0.491,1.012,0.723,0.319,0.571,0.532,�k��,7.0,��
2023/10/08,03:30,0.528,0.804,0.493,1.010,0.722,0.319,0.573,0.532,�k��,7.1,��
2023/10/08,03:40,0.528,0.803,0.493,1.010,0.723,0.320,0.573,0.532,�k��,7.4,��
2023/10/08,03:50,0.527,0.805,0.494,1.012,0.723,0.319,0.573,0.532,���k��,7.4,��
2023/10/08,04:00,0.529,0.804,0.494,1.011,0.723,0.319,0.574,0.533,�k��,7.0,��
2023/10/08,04:10,0.529,0.804,0.493,1.010,0.721,0.320,0.573,0.531,�k��,6.0,��
2023/10/08,04:20,0.528,0.805,0.493,1.010,0.723,0.319,0.573,0.532,�k��,6.2,��
2023/10/08,04:30,0.528,0.806,0.491,1.008,0.719,0.320,0.574,0.532,�k��,6.1,��
2023/10/08,04:40,0.527,0.803,0.493,1.011,0.765,0.318,0.573,0.533,�k��,6.0,��
2023/10/08,04:50,0.529,0.805,0.492,1.011,0.722,0.319,0.574,0.532,�k��,7.1,��
2023/10/08,05:00,0.528,0.805,0.492,1.010,0.723,0.318,0.573,0.532,�k��,6.3,��
2023/10/08,05:10,0.528,0.805,0.492,1.013,0.723,0.318,0.572,0.532,�k��,6.7,��
2023/10/08,05:20,0.527,0.805,0.493,1.009,0.721,0.320,0.572,0.533,�k��,6.6,��
2023/10/08,05:30,0.528,0.804,0.492,1.011,0.721,0.320,0.573,0.531,�k��,6.4,��
2023/10/08,05:40,0.527,0.804,0.493,1.011,0.723,0.320,0.572,0.533,�k��,6.0,��
2023/10/08,05:50,0.529,0.805,0.492,1.013,0.722,0.318,0.573,0.532,�k��,6.4,��
2023/10/08,06:00,0.529,0.807,0.492,1.011,0.722,0.320,0.575,0.534,�k��,7.3,��
2023/10/08,06:10,0.528,0.806,0.492,1.009,0.722,0.319,0.572,0.531,�k��,6.4,��
2023/10/08,06:20,0.526,0.803,0.493,1.010,0.721,0.319,0.574,0.532,�k��,6.4,��
2023/10/08,06:30,0.528,0.805,0.493,1.010,0.722,0.319,0.574,0.532,�k��,5.9,��
2023/10/08,06:40,0.527,0.806,0.492,1.010,0.722,0.319,0.574,0.533,�k��,6.1,��
2023/10/08,06:50,0.529,0.806,0.493,1.011,0.722,0.320,0.572,0.532,�k��,5.5,��
2023/10/08,07:00,0.528,0.806,0.493,1.012,0.720,0.320,0.574,0.531,�k�k��,5.4,��
2023/10/08,07:10,0.528,0.805,0.493,1.011,0.723,0.319,0.574,0.532,�k��,5.0,��
2023/10/08,07:20,0.527,0.806,0.495,1.012,0.722,0.321,0.574,0.532,�k�k��,5.2,��
2023/10/08,07:30,0.529,0.806,0.494,1.011,0.722,0.320,0.574,0.533,�k�k��,5.4,��
2023/10/08,07:40,0.528,0.804,0.494,1.012,0.723,0.321,0.574,0.533,�k�k��,5.2,��
2023/10/08,07:50,0.528,0.804,0.493,1.012,0.723,0.320,0.574,0.531,�k�k��,4.0,��
2023/10/08,08:00,0.528,0.800,0.494,1.012,0.722,0.319,0.575,0.533,�k�k��,3.9,��
2023/10/08,08:10,0.529,0.804,0.493,1.012,0.723,0.320,0.572,0.531,�k�k��,5.6,��
2023/10/08,08:20,0.527,0.802,0.492,1.011,0.723,0.321,0.573,0.534,�k�k��,4.6,��
2023/10/08,08:30,0.526,0.804,0.493,1.011,0.722,0.320,0.571,0.533,�k,3.6,��
2023/10/08,08:40,0.526,0.803,0.492,1.007,0.723,0.320,0.573,0.533,�k,4.6,��
2023/10/08,08:50,0.528,0.803,0.493,1.011,0.724,0.320,0.573,0.534,�k�k��,5.6,��
2023/10/08,09:00,0.528,0.803,0.494,1.012,0.721,0.319,0.572,0.534,�k�k��,5.9,��
2023/10/08,09:10,0.527,0.803,0.493,1.011,0.723,0.321,0.572,0.534,�k,6.2,��
2023/10/08,09:20,0.529,0.805,0.494,1.012,0.721,0.319,0.571,0.533,�k�k��,5.3,��
2023/10/08,09:30,0.528,0.804,0.491,1.010,0.721,0.318,0.573,0.531,�k,4.8,��
2023/10/08,09:40,0.526,0.805,0.492,1.012,0.722,0.319,0.572,0.530,�k�k��,5.1,��
2023/10/08,09:50,0.527,0.805,0.492,1.009,0.722,0.318,0.572,0.531,�k�k��,5.0,��
2023/10/08,10:00,0.528,0.806,0.491,1.013,0.723,0.319,0.572,0.531,�k�k��,6.2,��
2023/10/08,10:10,0.528,0.806,0.492,1.013,0.722,0.319,0.571,0.530,�k�k��,5.2,��
2023/10/08,10:20,0.527,0.806,0.491,1.012,0.723,0.319,0.572,0.531,�k�k��,6.2,��
2023/10/08,10:30,0.528,0.805,0.492,1.012,0.722,0.318,0.572,0.531,�k�k��,6.2,��
2023/10/08,10:40,0.529,0.805,0.490,1.011,0.723,0.319,0.572,0.532,�k�k��,6.3,��
2023/10/08,10:50,0.529,0.806,0.492,1.012,0.722,0.319,0.572,0.531,�k�k��,6.6,��
2023/10/08,11:00,0.529,0.806,0.491,1.011,0.724,0.318,0.572,0.532,�k�k��,6.2,��
2023/10/08,11:10,0.528,0.806,0.492,1.011,0.724,0.319,0.573,0.531,�k�k��,6.5,��
2023/10/08,11:20,0.528,0.806,0.493,1.011,0.724,0.320,0.573,0.530,�k�k��,6.6,��
2023/10/08,11:30,0.528,0.807,0.493,1.012,0.725,0.319,0.573,0.532,�k�k��,6.6,��
2023/10/08,11:40,0.530,0.809,0.492,1.014,0.724,0.320,0.572,0.531,�k�k��,6.0,��
2023/10/08,11:50,0.530,0.807,0.493,1.014,0.722,0.319,0.573,0.531,�k�k��,5.4,��
2023/10/08,12:00,0.530,0.807,0.494,1.014,0.725,0.319,0.573,0.530,�k�k��,6.0,��
2023/10/08,12:10,0.528,0.806,0.492,1.011,0.724,0.318,0.573,0.532,�k�k��,5.6,��
2023/10/08,12:20,0.528,0.808,0.494,1.013,0.726,0.319,0.573,0.532,�k�k��,5.4,��
2023/10/08,12:30,0.527,0.807,0.493,1.013,0.726,0.318,0.573,0.531,�k�k��,5.4,��
2023/10/08,12:40,0.528,0.807,0.493,1.012,0.724,0.319,0.571,0.532,�k�k��,5.8,��
2023/10/08,12:50,0.529,0.807,0.493,1.011,0.727,0.320,0.572,0.531,�k�k��,5.1,��
2023/10/08,13:00,0.529,0.808,0.493,1.014,0.725,0.320,0.571,0.530,�k�k��,5.1,��
2023/10/08,13:10,0.529,0.807,0.492,1.014,0.727,0.319,0.574,0.531,�k�k��,5.4,��
2023/10/08,13:20,0.529,0.807,0.492,1.013,0.726,0.320,0.573,0.531,�k�k��,5.1,��
2023/10/08,13:30,0.528,0.808,0.493,1.013,0.723,0.319,0.572,0.532,�k�k��,5.6,��
2023/10/08,13:40,0.529,0.807,0.493,1.013,0.726,0.319,0.573,0.531,�k�k��,4.7,��
2023/10/08,13:50,0.527,0.807,0.495,1.013,0.725,0.319,0.573,0.532,�k�k��,4.8,��
2023/10/08,14:00,0.530,0.808,0.491,1.012,0.724,0.319,0.572,0.532,�k�k��,3.7,��
2023/10/08,14:10,0.530,0.806,0.494,1.013,0.726,0.318,0.573,0.531,�k�k��,3.5,��
2023/10/08,14:20,0.528,0.807,0.493,1.012,0.724,0.319,0.573,0.532,�k�k��,2.5,��
2023/10/08,14:30,0.529,0.805,0.492,1.012,0.725,0.319,0.572,0.532,�k�k��,2.8,��
2023/10/08,14:40,0.528,0.805,0.492,1.017,0.725,0.319,0.571,0.531,�k��,3.4,��
2023/10/08,14:50,0.529,0.808,0.493,1.014,0.727,0.318,0.570,0.532,�k�k��,2.6,��
2023/10/08,15:00,0.528,0.808,0.492,1.013,0.725,0.319,0.572,0.532,�k��,3.2,��
2023/10/08,15:10,0.528,0.807,0.491,1.012,0.725,0.319,0.573,0.532,�k��,3.4,��
2023/10/08,15:20,0.529,0.809,0.491,1.012,0.725,0.319,0.573,0.532,�k�k��,3.0,��
2023/10/08,15:30,0.529,0.807,0.492,1.013,0.726,0.320,0.572,0.532,�k��,2.8,��
2023/10/08,15:40,0.528,0.807,0.492,1.013,0.725,0.319,0.573,0.532,�k��,3.3,��
2023/10/08,15:50,0.529,0.809,0.493,1.012,0.727,0.319,0.572,0.532,�k�k��,2.9,��
2023/10/08,16:00,0.529,0.811,0.493,1.013,0.726,0.321,0.573,0.530,�k��,2.8,��
2023/10/08,16:10,0.528,0.810,0.495,1.015,0.727,0.320,0.574,0.532,�k�k��,3.6,��
2023/10/08,16:20,0.528,0.809,0.496,1.012,0.728,0.321,0.573,0.532,�k��,2.9,��
2023/10/08,16:30,0.531,0.810,0.496,1.011,0.727,0.320,0.572,0.532,�k�k��,2.9,��
2023/10/08,16:40,0.532,0.810,0.496,1.016,0.727,0.320,0.573,0.531,�k�k��,3.2,��
2023/10/08,16:50,0.529,0.810,0.496,1.014,0.727,0.320,0.572,0.533,�k��,2.0,��
2023/10/08,17:00,0.531,0.811,0.495,1.016,0.728,0.320,0.575,0.533,���k��,3.1,��
2023/10/08,17:10,0.531,0.811,0.495,1.011,0.728,0.319,0.574,0.533,�k�k��,2.2,��
2023/10/08,17:20,0.530,0.811,0.496,1.012,0.727,0.321,0.574,0.534,�k��,2.0,��
2023/10/08,17:30,0.530,0.810,0.495,1.011,0.727,0.320,0.572,0.533,�k�k��,1.5,��
2023/10/08,17:40,0.532,0.812,0.497,1.014,0.728,0.319,0.573,0.533,�k��,2.3,��
2023/10/08,17:50,0.531,0.810,0.494,1.013,0.728,0.320,0.572,0.535,�k�k��,3.0,��
2023/10/08,18:00,0.531,0.810,0.494,1.015,0.727,0.320,0.574,0.534,�k��,2.2,��
2023/10/08,18:10,0.533,0.809,0.494,1.013,0.729,0.320,0.575,0.533,�k��,2.0,��
2023/10/08,18:20,0.531,0.811,0.496,1.011,0.728,0.320,0.574,0.533,�k��,2.6,��
2023/10/08,18:30,0.532,0.809,0.495,1.009,0.727,0.320,0.573,0.534,�k��,2.8,��
2023/10/08,18:40,0.531,0.810,0.494,1.013,0.728,0.321,0.574,0.534,�k�k��,2.8,��
2023/10/08,18:50,0.531,0.810,0.495,1.015,0.730,0.321,0.575,0.533,�k�k��,3.2,��
2023/10/08,19:00,0.531,0.811,0.495,1.015,0.729,0.321,0.574,0.533,�k��,4.0,��
2023/10/08,19:10,0.531,0.810,0.493,1.012,0.729,0.321,0.573,0.533,�k��,4.1,��
2023/10/08,19:20,0.531,0.811,0.495,1.014,0.728,0.321,0.575,0.533,�k��,3.7,��
2023/10/08,19:30,0.530,0.809,0.494,1.015,0.726,0.321,0.576,0.533,�k��,3.6,��
2023/10/08,19:40,0.530,0.811,0.494,1.014,0.728,0.321,0.574,0.532,�k��,3.5,��
2023/10/08,19:50,0.531,0.809,0.494,1.014,0.727,0.320,0.575,0.535,�k��,3.6,��
2023/10/08,20:00,0.531,0.811,0.495,1.013,0.727,0.321,0.575,0.532,�k��,4.0,��
2023/10/08,20:10,0.532,0.810,0.493,1.013,0.728,0.320,0.574,0.534,�k��,3.3,��
2023/10/08,20:20,0.531,0.812,0.495,1.014,0.729,0.321,0.575,0.534,�k��,3.9,��
2023/10/08,20:30,0.531,0.809,0.493,1.013,0.730,0.320,0.574,0.534,�k��,4.1,��
2023/10/08,20:40,0.531,0.810,0.495,1.012,0.728,0.321,0.575,0.534,�k��,3.7,��
2023/10/08,20:50,0.531,0.811,0.494,1.013,0.729,0.319,0.574,0.533,�k��,4.0,��
2023/10/08,21:00,0.532,0.810,0.495,1.013,0.727,0.320,0.575,0.533,�k��,3.7,��
2023/10/08,21:10,0.531,0.810,0.493,1.014,0.726,0.321,0.574,0.533,�k��,3.3,��
2023/10/08,21:20,0.531,0.811,0.494,1.012,0.729,0.322,0.574,0.533,�k��,2.8,��
2023/10/08,21:30,0.530,0.810,0.495,1.015,0.727,0.320,0.575,0.533,�k��,3.2,��
2023/10/08,21:40,0.531,0.810,0.496,1.014,0.728,0.321,0.575,0.533,�k��,3.3,��
2023/10/08,21:50,0.532,0.811,0.493,1.014,0.728,0.321,0.575,0.533,�k��,3.4,��
2023/10/08,22:00,0.530,0.810,0.496,1.013,0.728,0.320,0.574,0.534,�k��,3.9,��
2023/10/08,22:10,0.531,0.810,0.494,1.016,0.727,0.320,0.575,0.534,�k��,3.5,��
2023/10/08,22:20,0.530,0.808,0.495,1.013,0.729,0.320,0.576,0.534,�k��,4.1,��
2023/10/08,22:30,0.530,0.809,0.495,1.014,0.726,0.322,0.575,0.533,�k��,4.1,��
2023/10/08,22:40,0.530,0.810,0.495,1.014,0.726,0.322,0.574,0.533,�k��,4.5,��
2023/10/08,22:50,0.532,0.809,0.496,1.015,0.729,0.321,0.575,0.534,�k��,4.8,�L
2023/10/08,23:00,0.531,0.810,0.494,1.014,0.729,0.321,0.574,0.532,�k��,4.8,�L
2023/10/08,23:10,0.531,0.811,0.496,1.015,0.725,0.321,0.576,0.533,�k��,5.2,��
2023/10/08,23:20,0.531,0.809,0.494,1.013,0.728,0.321,0.575,0.534,�k��,6.4,�L
2023/10/08,23:30,0.533,0.809,0.495,1.014,0.728,0.322,0.576,0.534,�k��,5.4,�L
2023/10/08,23:40,0.531,0.810,0.494,1.014,0.728,0.321,0.575,0.533,�k��,5.6,�L
2023/10/08,23:50,0.531,0.810,0.494,1.014,0.728,0.322,0.575,0.533,�k��,4.7,�L
